{"data":{"norad_id":64574,"intl_designator":"2025-135AY","name":"ICEYE-X56","alt_names":[],"object_type":"PAYLOAD","status":"ACTIVE","operator":null,"country":"FIN","launch_date":"2025-06-23","launch_site_code":"AFWTR","launch_vehicle":null,"mission":null,"orbit_class":"UNKNOWN","rcs_meters":null,"size_class":null,"mass_kg":null,"dimensions":null,"purposes":[],"wikipedia_slug":null,"has_3d_model":false,"image_url":null,"decayed_at":null,"tle_current":{"epoch":"2026-09-21T21:24:48.819744Z","epoch_age_seconds":61985,"freshness":"FRESH","line1":"1 64574U 25135AY  26264.89223171  .00001297  00000+0  12060-3 0  9995","line2":"2 64574  97.7827  19.1660 0002636  42.4057 317.7367 14.96082225 68388","mean_motion":14.96082225,"eccentricity":0.0002636,"inclination_deg":97.7827,"raan_deg":19.166,"arg_perigee_deg":42.4057,"mean_anomaly_deg":317.7367,"bstar":0.0001206,"rev_number":6838,"period_min":96.251394203952,"perigee_km":577.18174578328,"apogee_km":580.84955666101,"semimajor_km":6957.1526512221,"source":"CELESTRAK","updated_at":"2026-09-22T09:00:29.851701Z"}}}